Tracking 20037 objects as of 20-Nov-2019
Live streaming from Space Station
objects crossing your sky now

PERSEUS M1

Track PERSEUS M1 now!
10-day predictions
PERSEUS M1 is classified as:


NORAD ID: 40039
Int'l Code: 2014-033AF
Perigee: 608.2 km
Apogee: 626.2 km
Inclination: 97.9 °
Period: 96.9 minutes
Semi major axis: 6988 km
RCS: Unknown
Launch date: June 19, 2014
Source: Commonwealth of Independent States (former USSR) (CIS)
Launch site: Orenburg, Russia (OREN)

Uplink (MHz):
Downlink (MHz): 400.160/400.170
Beacon (MHz):
Mode: 9600bps GFSK
Call sign: CQ
Status:

aabbcc
Your satellite tracking list
Your tracking list is empty




NASA's NSSDC Master Catalog

Two Line Element Set (TLE):
1 40039U 14033AF  19323.86645357 +.00000113 +00000-0 +19176-4 0  9992
2 40039 097.8857 235.7466 0012853 282.1188 077.8587 14.86113822293297
Source of the keplerian elements: AFSPC